Location: Darmstadt
(49.8706°N, 8.6494°E)
Time: 06:27:34
(UTC+01:00)

S3M - Pass Details

Date: 31 October 2020
Orbit: 950 x 1003 km, 83.0° (Epoch: 03 December)

Event Time Altitude Azimuth Distance (km) Brightness Sun altitude
Rises 19:05:18 0° 195° (SSW) 3,614 7.2 -20.0°
Reaches altitude 10° 19:07:47 10° 197° (SSW) 2,676 6.5 -20.4°
Maximum altitude 19:13:53 71° 281° (WNW) 1,018 4.2 -21.4°
Drops below altitude 10° 19:20:07 10° 6° (N) 2,723 6.3 -22.4°
Sets 19:22:40 0° 9° (N) 3,682 7.0 -22.8°
